CAPE
90 0 0 0 5 6 0 0 0 0 0 0 0 0 0 0 0 0 0 0 0 0 0 0 0 0 0 0 0 0 0 0 0 3 3 0 0 0 0 0 0 0 0
20 0 0 0 4 9 3 2 0 0 0 0 0 0 0 0 0 0 0 0 0 0 0 0 0 0 0 0 0 0 0 0 0 0 0 0 0 0 0 0 0 0 0
38 4 0 0 1 16 9 2 2 0 0 0 0 0 0 0 0 0 0 0 0 0 0 0 0 0 0 0 0 0 0 0 0 0 0 0 0 0 0 0 0 0 0
23 0 0 0 0 4 19 12 0 0 0 0 0 0 0 0 0 0 0 0 0 0 0 0 0 0 0 0 0 0 0 0 0 0 0 0 0 0 0 0 0 0 0
20 0 0 0 0 0 7 9 4 1 0 0 0 0 0 0 0 0 0 0 0 0 0 0 0 0 0 0 0 0 0 0 0 0 0 0 0 0 0 0 0 0 0
15 0 0 0 0 0 3 6 6 1 0 0 0 0 0 0 0 0 0 0 0 0 0 0 0 0 0 0 0 0 0 0 0 0 0 0 0 0 0 0 0 0 0
39 0 0 0 0 0 1 7 4 3 0 0 0 0 0 0 0 0 0 0 0 0 0 0 0 0 0 0 0 0 0 0 0 0 0 0 0 0 0 0 0 0 0
16 5 0 0 0 0 0 1 0 0 0 0 0 0 0 0 0 0 0 0 0 0 0 0 0 0 0 0 0 0 0 0 0 0 0 0 0 0 0 0 0 0 0
38 6 0 0 0 0 0 0 0 0 0 1 0 0 0 0 0 0 0 0 0 0 0 0 0 0 0 0 0 0 0 0 0 0 0 0 0 0 0 0 0 0 0
23 0 0 0 0 0 0 0 0 0 0 0 0 0 0 0 0 0 0 0 0 0 0 0 0 0 0 0 0 0 0 0 0 0 0 0 0 0 0 0 0 0 0
0 0 0 0 0 0 0 0 0 0 0 0 0 0 0 0 0 0 0 0 0 0 0 0 0 0 0 0 0 0 0 0 0 0 0 0 0 0 0 0 0 0 0
0 0 0 0 0 0 0 0 0 0 0 0 0 0 0 0 0 0 0 0 0 0 0 0 0 0 0 0 0 0 0 0 0 0 0 0 0 0 0 0 0 0 0
0 0 0 0 0 0 0 0 0 0 0 0 0 0 0 0 0 0 0 0 0 0 0 0 0 0 0 0 0 0 0 0 0 0 0 0 0 0 0 0 0 0 0
0 0 0 0 0 0 0 0 0 0 0 0 0 0 0 0 0 0 0 0 0 0 0 0 0 0 0 0 0 0 0 0 0 0 0 0 0 0 0 0 0 0 1
0 0 0 0 0 0 0 0 0 0 0 0 0 0 0 0 0 0 0 0 0 0 0 0 0 0 0 0 0 0 0 0 0 0 0 0 0 0 0 0 0 1 2
0 0 0 0 0 0 0 0 0 0 0 0 0 0 0 0 0 0 0 0 0 0 0 0 0 0 0 0 0 0 0 0 0 0 0 0 0 0 0 0 0 0 1
0 0 0 0 0 0 0 0 0 0 0 0 0 0 0 0 0 0 0 0 0 0 0 0 0 0 0 0 0 0 0 0 0 0 0 0 0 0 0 0 0 0 0
0 0 0 0 0 0 0 0 0 0 0 0 0 0 0 0 0 0 0 0 0 0 0 0 0 0 0 0 0 0 0 0 0 0 0 0 0 0 0 0 0 0 3
0 0 0 0 0 0 0 0 0 0 0 0 0 0 0 0 0 0 0 0 0 0 0 0 0 0 0 0 0 0 0 0 0 0 0 0 0 0 0 0 0 0 1
0 0 0 0 0 0 0 0 0 0 0 0 0 0 0 0 0 0 0 0 0 0 0 0 0 0 0 0 0 0 0 0 0 0 0 0 0 0 0 0 1 1 4
0 0 0 0 0 0 0 0 0 0 0 0 0 0 0 0 0 0 0 0 0 0 0 0 0 0 0 0 0 0 0 0 0 0 0 0 0 0 0 0 3 2 1
0 0 0 0 0 0 0 0 0 0 0 0 0 0 0 0 0 0 0 0 0 0 0 0 0 0 0 0 0 0 0 0 0 0 0 0 0 0 0 0 0 0 0
0 0 0 0 0 0 0 0 0 0 0 0 0 0 0 0 0 0 0 0 0 0 0 0 0 0 0 0 0 0 0 0 0 0 0 0 0 0 0 0 0 0 24
0 0 0 0 0 0 0 0 0 0 0 0 0 0 0 0 0 0 0 0 0 0 0 0 0 0 0 0 0 0 0 0 0 0 0 0 0 0 0 1 3 9 18
0 0 0 0 0 0 0 0 0 0 0 0 0 0 0 0 0 0 0 0 0 0 0 0 0 1 0 0 0 0 0 0 0 0 0 0 0 0 1 3 5 5 10
0 0 0 0 0 0 0 0 0 0 0 0 0 0 0 0 0 0 0 0 0 0 0 0 0 0 0 0 0 0 0 0 0 0 0 0 0 1 1 3 4 10 9
CIN
-152 -0 -0 -0 -0 -0 -0 -0 -0 -0 -0 -0 -0 -0 -0 -0 -0 -0 -0 -0 -0 -0 -0 -0 -0 -0 -0 -0 -0 -0 -0 -0 -0 -0 -0 -0 -0 -0 -0 -0 -0 -0 -0
-216 -0 -0 -0 -0 -0 -0 -0 -0 -0 -0 -0 -0 -0 -0 -0 -0 -0 -0 -0 -0 -0 -0 -0 -0 -0 -0 -0 -0 -0 -0 -0 -0 -0 -0 -0 -0 -0 -0 -0 -0 -0 -0
-125 -170 -0 -0 -0 -0 -0 -0 -0 -0 -0 -0 -0 -0 -0 -0 -0 -0 -0 -0 -0 -0 -0 -0 -0 -0 -0 -0 -0 -0 -0 -0 -0 -0 -0 -0 -0 -0 -0 -0 -0 -0 -0
-113 -0 -0 -0 -0 -0 -18 -0 -0 -0 -0 -0 -0 -0 -0 -0 -0 -0 -0 -0 -0 -0 -0 -0 -0 -0 -0 -0 -0 -0 -0 -0 -0 -0 -0 -0 -0 -0 -0 -0 -0 -0 -0
-108 -0 -0 -0 -0 -0 -0 -0 -0 -0 -0 -0 -0 -0 -0 -0 -0 -0 -0 -0 -0 -0 -0 -0 -0 -0 -0 -0 -0 -0 -0 -0 -0 -0 -0 -0 -0 -0 -0 -0 -0 -0 -0
-78 -0 -0 -0 -0 -0 -0 -0 -0 -0 -0 -0 -0 -0 -0 -0 -0 -0 -0 -0 -0 -0 -0 -0 -0 -0 -0 -0 -0 -0 -0 -0 -0 -0 -0 -0 -0 -0 -0 -0 -0 -0 -0
-51 -0 -0 -0 -0 -0 -0 -0 -0 -0 -0 -0 -0 -0 -0 -0 -0 -0 -0 -0 -0 -0 -0 -0 -0 -0 -0 -0 -0 -0 -0 -0 -0 -0 -0 -0 -0 -0 -0 -0 -0 -0 -0
-47 -59 -0 -0 -0 -0 -0 -0 -0 -0 -0 -0 -0 -0 -0 -0 -0 -0 -0 -0 -0 -0 -0 -0 -0 -0 -0 -0 -0 -0 -0 -0 -0 -0 -0 -0 -0 -0 -0 -0 -0 -0 -0
-58 -73 -0 -0 -0 -0 -0 -0 -0 -0 -0 -0 -0 -0 -0 -0 -0 -0 -0 -0 -0 -0 -0 -0 -0 -0 -0 -0 -0 -0 -0 -0 -0 -0 -0 -0 -0 -0 -0 -0 -0 -0 -0
-53 -0 -0 -0 -0 -0 -0 -0 -0 -0 -0 -0 -0 -0 -0 -0 -0 -0 -0 -0 -0 -0 -0 -0 -0 -0 -0 -0 -0 -0 -0 -0 -0 -0 -0 -0 -0 -0 -0 -0 -0 -0 -0
-0 -0 -0 -0 -0 -0 -0 -0 -0 -0 -0 -0 -0 -0 -0 -0 -0 -0 -0 -0 -0 -0 -0 -0 -0 -0 -0 -0 -0 -0 -0 -0 -0 -0 -0 -0 -0 -0 -0 -0 -0 -0 -0
-0 -0 -0 -0 -0 -0 -0 -0 -0 -0 -0 -0 -0 -0 -0 -0 -0 -0 -0 -0 -0 -0 -0 -0 -0 -0 -0 -0 -0 -0 -0 -0 -0 -0 -0 -0 -0 -0 -0 -0 -0 -0 -0
-0 -0 -0 -0 -0 -0 -0 -0 -0 -0 -0 -0 -0 -0 -0 -0 -0 -0 -0 -0 -0 -0 -0 -0 -0 -0 -0 -0 -0 -0 -0 -0 -0 -0 -0 -0 -0 -0 -0 -0 -0 -0 -0
-0 -0 -0 -0 -0 -0 -0 -0 -0 -0 -0 -0 -0 -0 -0 -0 -0 -0 -0 -0 -0 -0 -0 -0 -0 -0 -0 -0 -0 -0 -0 -0 -0 -0 -0 -0 -0 -0 -0 -0 -0 -0 -0
-0 -0 -0 -0 -0 -0 -0 -0 -0 -0 -0 -0 -0 -0 -0 -0 -0 -0 -0 -0 -0 -0 -0 -0 -0 -0 -0 -0 -0 -0 -0 -0 -0 -0 -0 -0 -0 -0 -0 -0 -0 -0 -0
-0 -0 -0 -0 -0 -0 -0 -0 -0 -0 -0 -0 -0 -0 -0 -0 -0 -0 -0 -0 -0 -0 -0 -0 -0 -0 -0 -0 -0 -0 -0 -0 -0 -0 -0 -0 -0 -0 -0 -0 -0 -0 -0
-0 -0 -0 -0 -0 -0 -0 -0 -0 -0 -0 -0 -0 -0 -0 -0 -0 -0 -0 -0 -0 -0 -0 -0 -0 -0 -0 -0 -0 -0 -0 -0 -0 -0 -0 -0 -0 -0 -0 -0 -0 -0 -0
-0 -0 -0 -0 -0 -0 -0 -0 -0 -0 -0 -0 -0 -0 -0 -0 -0 -0 -0 -0 -0 -0 -0 -0 -0 -0 -0 -0 -0 -0 -0 -0 -0 -0 -0 -0 -0 -0 -0 -0 -0 -0 -0
-0 -0 -0 -0 -0 -0 -0 -0 -0 -0 -0 -0 -0 -0 -0 -0 -0 -0 -0 -0 -0 -0 -0 -0 -0 -0 -0 -0 -0 -0 -0 -0 -0 -0 -0 -0 -0 -0 -0 -0 -0 -0 -0
-0 -0 -0 -0 -0 -0 -0 -0 -0 -0 -0 -0 -0 -0 -0 -0 -0 -0 -0 -0 -0 -0 -0 -0 -0 -0 -0 -0 -0 -0 -0 -0 -0 -0 -0 -0 -0 -0 -0 -0 -0 -0 -0
-0 -0 -0 -0 -0 -0 -0 -0 -0 -0 -0 -0 -0 -0 -0 -0 -0 -0 -0 -0 -0 -0 -0 -0 -0 -0 -0 -0 -0 -0 -0 -0 -0 -0 -0 -0 -0 -0 -0 -0 -0 -0 -2
-0 -0 -0 -0 -0 -0 -0 -0 -0 -0 -0 -0 -0 -0 -0 -0 -0 -0 -0 -0 -0 -0 -0 -0 -0 -0 -0 -0 -0 -0 -0 -0 -0 -0 -0 -0 -0 -0 -0 -0 -0 -0 -0
-0 -0 -0 -0 -0 -0 -0 -0 -0 -0 -0 -0 -0 -0 -0 -0 -0 -0 -0 -0 -0 -0 -0 -0 -0 -0 -0 -0 -0 -0 -0 -0 -0 -0 -0 -0 -0 -0 -0 -0 -0 -0 -0
-0 -0 -0 -0 -0 -0 -0 -0 -0 -0 -0 -0 -0 -0 -0 -0 -0 -0 -0 -0 -0 -0 -0 -0 -0 -0 -0 -0 -0 -0 -0 -0 -0 -0 -0 -0 -0 -0 -0 -0 -2 -0 -0
-0 -0 -0 -0 -0 -0 -0 -0 -0 -0 -0 -0 -0 -0 -0 -0 -0 -0 -0 -0 -0 -0 -0 -0 -0 -0 -0 -0 -0 -0 -0 -0 -0 -0 -0 -0 -0 -0 -0 -0 -0 -0 -0
-0 -0 -0 -0 -0 -0 -0 -0 -0 -0 -0 -0 -0 -0 -0 -0 -0 -0 -0 -0 -0 -0 -0 -0 -0 -0 -0 -0 -0 -0 -0 -0 -0 -0 -0 -0 -0 -0 -0 -0 -0 -0 -0
Wind_Speed
16 15 15 16 14 13 11 8 7 7 5 3 5 6 6 6 7 6 10 10 9 9 8 7 7 8 8 8 7 7 8 7 6 5 5 5 4 4 4 5 7 9 9
18 16 15 15 15 14 13 11 9 8 8 7 5 7 5 7 6 7 7 8 8 9 8 8 8 8 7 9 9 9 6 8 8 6 5 2 5 4 5 5 6 8 7
19 17 17 15 15 15 15 14 12 10 5 8 9 6 7 6 5 6 7 8 9 10 9 9 8 8 7 8 9 9 11 7 8 12 6 4 6 8 4 3 4 6 6
18 18 17 17 16 14 14 14 14 12 9 7 7 7 5 6 5 6 7 7 9 9 9 8 8 9 8 10 8 9 9 9 9 6 7 7 7 5 4 6 8 8 5
20 19 18 17 16 15 14 14 14 13 11 9 10 7 8 7 5 6 8 7 6 8 10 7 7 7 8 9 10 10 11 8 8 7 7 7 5 7 5 6 9 9 6
21 19 18 17 16 15 16 15 15 13 12 10 10 10 10 10 7 7 6 5 5 6 6 8 8 9 9 8 8 10 11 9 8 6 7 7 6 7 6 8 9 11 9
21 20 20 18 17 16 16 14 15 14 13 12 10 10 10 10 10 9 6 7 5 4 6 7 7 6 8 8 8 8 8 8 7 8 6 5 5 5 6 7 9 10 9
20 21 21 19 18 17 17 16 16 14 14 13 11 10 12 8 8 7 8 6 6 6 8 9 7 8 8 6 6 7 6 7 7 8 6 4 5 5 5 6 8 9 9
23 23 22 19 18 18 17 16 16 15 14 13 12 11 11 11 9 10 8 7 8 7 8 8 8 8 6 5 7 5 6 6 6 5 6 5 5 4 5 6 6 7 8
23 22 21 21 18 17 16 16 16 16 15 14 12 11 11 10 11 10 9 9 8 10 8 8 8 7 6 5 5 5 7 6 4 5 6 6 6 6 6 6 6 6 8
23 22 21 20 19 18 17 16 15 16 15 14 13 12 12 11 11 9 10 9 9 9 8 7 7 6 6 5 5 5 5 5 5 5 5 6 7 6 6 6 6 7 8
21 22 21 22 20 19 18 17 16 16 15 15 14 13 12 12 11 10 10 10 9 9 8 7 7 6 6 5 4 4 5 5 5 6 6 7 6 7 8 7 8 8 8
20 21 22 21 20 19 18 18 17 16 16 15 15 14 13 13 12 11 10 10 10 9 9 8 7 6 5 4 3 4 4 4 5 6 6 7 8 8 8 9 8 8 7
21 21 21 22 21 20 19 19 18 17 17 16 16 15 14 13 12 11 11 11 10 10 9 8 7 6 5 5 3 3 2 3 4 5 5 5 7 8 9 8 9 9 9
21 22 23 22 22 21 20 19 19 18 18 17 17 16 15 14 13 13 12 11 10 10 9 8 8 6 5 3 1 2 2 3 4 4 5 4 3 3 3 6 9 9 8
23 23 23 24 24 23 21 20 19 19 18 18 17 16 16 15 14 13 13 12 11 10 9 9 8 7 4 9 5 5 1 3 4 5 5 6 9 3 8 10 9 8 7
22 23 24 23 23 23 22 21 20 19 19 18 17 17 16 15 15 14 13 13 12 10 10 9 9 8 8 9 4 2 5 3 4 5 6 7 5 4 10 10 13 12 14
21 21 20 20 22 22 22 20 20 19 19 19 18 17 17 16 15 15 14 13 11 11 10 9 9 8 6 12 7 3 6 3 3 4 5 6 7 10 10 11 10 9 8
20 19 19 20 21 23 22 22 21 20 20 20 19 19 18 17 16 15 13 13 11 11 10 10 9 8 10 12 9 6 6 4 4 3 4 3 6 10 9 11 11 10 10
16 18 19 20 21 22 22 22 22 21 21 20 20 19 18 17 17 16 15 12 12 11 9 10 9 6 7 12 10 7 6 4 3 4 2 8 5 4 7 9 10 11 10
17 17 18 19 21 22 22 22 21 21 20 19 19 19 19 18 17 16 13 13 13 11 10 10 8 8 7 12 11 8 6 4 3 4 3 6 5 5 7 8 8 10 10
18 18 17 17 19 21 21 22 22 19 19 19 19 19 18 15 14 16 14 14 13 11 11 10 8 6 8 7 10 9 8 5 5 4 3 4 6 5 9 9 7 10 7
17 17 17 18 18 19 19 21 19 20 19 19 19 18 18 16 16 15 14 12 13 10 10 8 7 7 6 8 12 11 8 6 5 4 4 3 8 11 12 12 9 5 5
17 17 17 18 18 18 20 19 20 19 19 19 19 16 15 15 14 11 11 10 10 9 9 8 7 6 7 7 7 7 7 7 7 7 6 5 5 7 6 6 3 6 5
15 16 17 17 19 20 20 21 21 20 19 19 16 16 14 15 14 12 10 10 11 10 9 8 8 7 7 7 8 7 8 6 2 2 5 4 3 4 4 4 5 5 6
12 14 16 16 17 19 20 20 20 21 19 17 15 13 12 12 11 10 6 14 4 10 8 7 7 5 5 14 13 12 10 8 5 3 5 2 3 4 5 4 5 4 5
Wind_Direction
163 160 159 162 159 162 152 140 124 125 112 129 114 123 99 85 63 53 47 45 38 38 29 59 52 59 44 39 26 55 36 38 13 288 163 137 136 64 26 48 37 9 28
162 167 166 167 169 166 165 148 153 157 163 175 135 85 91 86 85 74 64 54 47 41 48 51 53 36 64 50 46 21 71 60 31 359 304 200 155 127 69 21 28 23 9
172 173 174 178 181 179 173 168 168 171 144 132 126 122 118 115 128 97 73 57 58 54 52 51 55 54 52 57 44 40 21 62 65 44 7 335 9 326 119 103 35 8 15
178 179 181 182 186 183 183 172 168 159 154 144 106 112 118 122 75 96 84 72 57 61 55 54 64 63 55 48 49 45 47 34 40 51 59 62 32 352 342 341 37 0 13
183 181 184 183 185 171 171 171 166 166 156 136 140 139 123 118 115 107 103 98 72 54 54 44 48 49 59 58 53 46 43 46 47 38 24 21 26 16 329 326 347 360 6
182 183 183 182 183 173 166 173 173 165 160 149 144 139 142 145 143 128 132 93 89 85 78 69 62 60 63 56 56 57 49 50 38 48 40 31 15 1 348 335 342 339 338
184 183 182 181 179 174 172 173 176 165 162 159 152 147 152 149 142 146 137 141 124 108 92 73 59 63 69 62 59 63 61 51 47 32 31 36 26 356 349 343 343 334 337
188 189 183 182 181 177 175 178 179 166 165 158 155 153 158 157 152 159 151 148 142 120 104 90 82 68 68 64 68 63 60 49 49 37 25 23 18 3 2 353 344 333 330
190 189 184 182 179 178 177 180 179 167 166 164 158 161 170 156 156 151 154 147 134 128 117 106 93 77 71 63 70 65 55 47 35 37 23 1 11 11 8 358 349 337 325
186 187 187 180 181 180 174 178 180 169 167 165 165 165 166 163 151 157 152 153 138 124 128 116 111 95 78 62 56 70 50 43 32 31 20 9 7 7 9 355 338 334 324
182 184 188 176 182 177 173 176 179 166 167 165 170 165 163 160 161 158 152 144 143 144 141 127 120 112 95 76 66 64 52 46 36 22 19 20 6 6 2 344 338 334 342
175 185 185 175 179 177 172 175 176 169 168 169 169 166 163 163 167 157 157 149 151 149 145 147 132 123 97 77 70 54 45 40 28 20 12 22 4 360 360 342 343 345 338
176 178 179 176 179 178 176 174 175 171 168 170 166 167 167 168 169 160 156 164 157 156 156 152 146 128 113 120 106 68 54 41 32 20 11 13 5 3 353 340 345 341 330
177 178 178 177 181 180 178 174 174 171 170 168 169 167 171 169 168 167 165 167 166 162 160 161 148 140 150 137 117 95 57 27 40 22 1 12 14 3 352 347 347 342 332
178 180 180 177 181 180 179 176 174 171 170 170 172 170 172 174 171 169 170 169 172 172 168 159 158 163 163 135 118 127 53 11 11 7 353 20 53 228 306 343 346 335 336
181 182 181 180 183 182 180 177 174 171 172 172 175 171 172 173 173 173 175 172 178 173 172 171 170 172 179 105 67 339 1 348 359 344 354 342 174 321 206 231 247 269 325
182 183 185 183 183 182 180 178 174 170 174 175 176 173 174 176 175 176 177 177 180 174 178 180 180 185 136 140 142 329 284 317 355 346 343 332 16 24 350 333 273 240 229
184 186 184 184 183 179 180 176 174 172 176 177 177 174 176 178 176 179 180 180 180 181 182 186 189 186 136 152 173 218 273 292 319 333 320 338 339 46 348 326 322 341 347
183 184 183 182 178 179 178 178 175 175 179 180 180 177 178 179 177 180 180 181 181 183 188 186 187 190 145 158 173 217 253 262 282 300 285 315 326 36 347 314 328 341 359
176 178 178 179 179 178 179 180 180 179 183 183 181 178 179 182 180 180 182 181 185 187 187 182 186 171 161 161 177 213 257 270 287 295 102 78 28 14 349 323 331 347 345
174 173 177 182 179 178 179 183 184 184 183 183 181 180 181 183 180 179 180 182 187 183 186 182 178 178 209 160 178 202 262 276 298 289 308 107 81 35 334 313 336 337 318
169 172 174 179 178 179 181 186 188 178 181 182 183 182 181 183 178 179 180 184 185 184 180 182 181 190 183 118 176 193 232 343 285 298 324 90 28 322 279 286 339 308 299
172 174 176 179 179 180 182 190 185 181 181 180 184 183 181 186 180 180 178 181 186 184 180 188 186 184 189 158 157 185 207 229 265 315 51 259 262 263 269 235 261 294 331
173 174 176 181 181 183 185 191 185 181 182 180 182 181 182 184 183 180 180 180 183 180 185 185 185 182 185 192 170 196 199 221 230 227 222 229 263 283 279 285 8 347 335
172 174 181 184 187 186 188 189 187 180 184 182 179 181 182 185 184 181 182 185 189 185 183 181 184 182 187 197 180 184 195 204 117 13 256 259 310 318 327 339 351 344 341
177 180 187 188 188 189 190 190 191 182 183 182 181 178 174 179 179 177 146 41 153 132 120 135 185 140 143 141 131 120 108 100 93 238 252 285 311 324 316 333 346 343 339